Location: Costa Mesa
(33.6411°N, 117.9187°W)
Time: 02:02:18
(UTC+00:00)

Cosmos 1862 - Pass Details

Date: 10 September 2024
Orbit: 499 x 517 km, 82.5° (Epoch: 10 October)

Event Time Altitude Azimuth Distance (km) Brightness Sun altitude
Rises 12:19:30 0° 340° (NNW) 2,596 6.7 -15.6°
Reaches altitude 10° 12:21:49 10° 328° (NNW) 1,707 5.7 -15.2°
Maximum altitude 12:25:00 27° 269° (W) 982 4.0 -14.5°
Enters shadow 12:25:24 27° 258° (WSW) 997 4.0 -14.5°
